Regional Weather Roundup
Issued by NWS

Home | Current Version | Previous Version | Graphics & Text | Print | Product List | Glossary On
Versions: 1 2 3 4 5 6 7 8 9 10 11 12 13 14 15 16 17 18 19 20 21 22 23 24 25 26 27 28 29 30 31 32 33 34 35 36 37 38 39 40 41 42 43 44 45 46 47 48 49 50
000
ASUS44 KMEG 221000
RWRTN
TENNESSEE HOURLY STATE WEATHER ROUNDUP
NATIONAL WEATHER SERVICE MEMPHIS TN
500 AM CDT WED OCT 22 2014

TNZ002-004-019-021-049-052-054-088>092-221100-
WEST TENNESSEE

CITY           SKY/WX    TMP DP  RH WIND       PRES   REMARKS
MEMPHIS INTL   CLEAR     54  46  74 NE6       30.16R
JACKSON        CLEAR     47  43  86 CALM      30.18R
DYERSBURG      CLEAR     46  36  66 CALM      30.21R
UNION CITY     CLEAR     43  41  93 NE3       30.19R
PARIS          CLEAR     41  37  87 NE3       30.20R
LEXINGTON      CLEAR     43  41  93 CALM      30.16R
SAVANNAH       CLEAR     39  39 100 CALM      30.17R
$$

TNZ008-025-027-028-033-062-065-066-221100-
NORTH MIDDLE TENNESSEE

CITY           SKY/WX    TMP DP  RH WIND       PRES   REMARKS
NASHVILLE      CLEAR     45  41  86 N6        30.18R
CLARKSVILLE    CLEAR     44  40  85 NE5       30.20R
COOKEVILLE     CLEAR     37  36  93 CALM      30.16R
CROSSVILLE     CLEAR     42  38  85 N5        30.15R
$$

TNZ061-075-076-078-094-096-097-221100-
SOUTH MIDDLE TENNESSEE

CITY           SKY/WX    TMP DP  RH WIND       PRES   REMARKS
MCMINNVILLE    CLEAR     39  39 100 CALM      30.16R
SHELBYVILLE    CLEAR     39  37  93 CALM      30.17R
$$

TNZ017-018-042-046-047-221100-
NORTHEAST TENNESSEE

CITY           SKY/WX    TMP DP  RH WIND       PRES   REMARKS
TRI CITIES     CLOUDY    46  38  73 N6        30.12R
ELIZABETHTON   CLOUDY    45  37  76 CALM      30.11R
$$

TNZ012-013-036-069-073-074-221100-
CENTRAL EAST TENNESSEE

CITY           SKY/WX    TMP DP  RH WIND       PRES   REMARKS
KNOXVILLE      CLEAR     43  40  89 NE5       30.13R
OAK RIDGE      CLEAR     42  39  89 CALM      30.16R
GATLINBURG     MOSUNNY   37  36  93 CALM      30.13R
$$

TNZ083-085-099-221100-
SOUTHEAST TENNESSEE

CITY           SKY/WX    TMP DP  RH WIND       PRES   REMARKS
CHATTANOOGA    CLEAR     48  39  71 CALM      30.13R
$$

SKY/WX REPORTED AS FAIR MEANS FEW OR NO CLOUDS BELOW
12 THOUSAND FEET.




USA.gov is the U.S. government's official web portal to all federal, state and local government web resources and services.